BAW126P LHBP-LZIB

Flight info

Callsign BAW126P
Flight time N/A
Altitude 16000
Route GILEP DCT XOMBA
Aircraft A20N/M-SDE2E3FGHIRWXY/LB1

Departure

Time 2026-05-07 18:57
Airport Budapest Liszt Ferenc International Airport (LHBP)

Arrival

Time N/A
Airport M. R. Štefánik Airport (LZIB)
Time Latitude Longitude Altitude Speed Heading
2026-05-07 17:56 47.43201 19.25874 457 ft 0 kts 43°
2026-05-07 18:39 47.43189 19.25858 457 ft 2 kts 41°
2026-05-07 18:39 47.43177 19.25842 455 ft 2 kts 40°
2026-05-07 18:39 47.43164 19.25827 455 ft 2 kts 38°
2026-05-07 18:40 47.43151 19.25812 454 ft 2 kts 33°
2026-05-07 18:40 47.43137 19.25800 455 ft 2 kts 20°
2026-05-07 18:40 47.43121 19.25797 455 ft 2 kts 335°
2026-05-07 18:40 47.43111 19.25806 455 ft 1 kts 314°
2026-05-07 18:41 47.43110 19.25808 456 ft 0 kts 314°
2026-05-07 18:44 47.43110 19.25807 456 ft 0 kts 314°
2026-05-07 18:44 47.43111 19.25807 456 ft 0 kts 314°
2026-05-07 18:45 47.43111 19.25806 455 ft 0 kts 314°
2026-05-07 18:45 47.43118 19.25795 455 ft 4 kts 314°
2026-05-07 18:46 47.43159 19.25732 457 ft 12 kts 314°
2026-05-07 18:46 47.43236 19.25615 457 ft 19 kts 314°
2026-05-07 18:46 47.43332 19.25452 457 ft 21 kts 302°
2026-05-07 18:46 47.43280 19.25307 456 ft 18 kts 229°
2026-05-07 18:47 47.43173 19.25154 457 ft 25 kts 224°
2026-05-07 18:47 47.43069 19.25021 455 ft 0 kts 221°
2026-05-07 18:47 47.43069 19.25022 455 ft 0 kts 221°
2026-05-07 18:47 47.43090 19.25049 456 ft 8 kts 221°
2026-05-07 18:48 47.43130 19.25101 456 ft 6 kts 221°
2026-05-07 18:48 47.43132 19.25103 456 ft 0 kts 221°
2026-05-07 18:53 47.43123 19.25092 457 ft 6 kts 221°
2026-05-07 18:53 47.43066 19.25018 455 ft 16 kts 221°
2026-05-07 18:53 47.43031 19.24973 457 ft 0 kts 221°
2026-05-07 18:53 47.43046 19.24992 456 ft 4 kts 221°
2026-05-07 18:54 47.43066 19.25017 457 ft 4 kts 221°
2026-05-07 18:54 47.43103 19.25066 455 ft 8 kts 221°
2026-05-07 18:54 47.43112 19.25077 456 ft 5 kts 221°
2026-05-07 18:54 47.43088 19.24995 457 ft 12 kts 264°
2026-05-07 18:55 47.43119 19.24871 457 ft 11 kts 262°
2026-05-07 18:55 47.43099 19.24837 456 ft 1 kts 181°
2026-05-07 18:55 47.43081 19.24843 457 ft 4 kts 160°
2026-05-07 18:55 47.43071 19.24872 457 ft 4 kts 111°
2026-05-07 18:56 47.43061 19.24936 457 ft 9 kts 110°
2026-05-07 18:56 47.43079 19.25005 453 ft 4 kts 14°
2026-05-07 18:56 47.43090 19.24987 457 ft 5 kts 306°
2026-05-07 18:56 47.43113 19.24938 457 ft 6 kts 304°
2026-05-07 18:57 47.43160 19.24845 456 ft 16 kts 313°
2026-05-07 18:57 47.43338 19.24557 452 ft 79 kts 312°
2026-05-07 18:57 47.43893 19.23659 467 ft 152 kts 313°
2026-05-07 18:57 47.44553 19.22451 1302 ft 146 kts 304°
2026-05-07 18:58 47.45066 19.21217 2058 ft 156 kts 299°
2026-05-07 18:58 47.45685 19.19672 2347 ft 188 kts 300°
2026-05-07 18:58 47.46540 19.18083 2670 ft 208 kts 310°
2026-05-07 18:58 47.47550 19.16433 2950 ft 228 kts 310°
2026-05-07 18:59 47.48650 19.14636 3314 ft 240 kts 310°
2026-05-07 18:59 47.49786 19.12783 3995 ft 245 kts 310°
2026-05-07 18:59 47.50944 19.10893 4872 ft 255 kts 310°
2026-05-07 18:59 47.52165 19.08896 5687 ft 265 kts 310°
2026-05-07 19:00 47.53413 19.06856 6482 ft 269 kts 310°
2026-05-07 19:00 47.54678 19.04787 6822 ft 272 kts 310°
2026-05-07 19:00 47.55951 19.02707 6982 ft 273 kts 310°
2026-05-07 19:00 47.57226 19.00623 7072 ft 273 kts 310°
2026-05-07 19:01 47.58502 18.98536 7168 ft 274 kts 310°
2026-05-07 19:01 47.59781 18.96444 7271 ft 274 kts 310°
2026-05-07 19:01 47.61045 18.94374 7364 ft 275 kts 309°
2026-05-07 19:01 47.62331 18.92268 7458 ft 275 kts 310°
2026-05-07 19:02 47.63615 18.90164 7555 ft 276 kts 310°
2026-05-07 19:02 47.64908 18.88046 7659 ft 276 kts 310°
2026-05-07 19:02 47.66196 18.85934 7757 ft 277 kts 309°
2026-05-07 19:02 47.67482 18.83826 7858 ft 278 kts 309°
2026-05-07 19:03 47.68773 18.81707 7959 ft 278 kts 310°
2026-05-07 19:03 47.70070 18.79575 8056 ft 278 kts 310°
2026-05-07 19:03 47.71366 18.77443 8158 ft 278 kts 310°
2026-05-07 19:03 47.72664 18.75309 8258 ft 279 kts 310°
2026-05-07 19:04 47.73965 18.73170 8367 ft 279 kts 310°
2026-05-07 19:04 47.75269 18.71026 8459 ft 280 kts 310°
2026-05-07 19:04 47.76512 18.68810 8560 ft 278 kts 298°
2026-05-07 19:04 47.77116 18.66114 8671 ft 277 kts 277°
2026-05-07 19:05 47.77345 18.63263 8769 ft 277 kts 275°
2026-05-07 19:05 47.77571 18.60425 8874 ft 276 kts 275°
2026-05-07 19:05 47.77779 18.57586 8975 ft 276 kts 270°
2026-05-07 19:05 47.77404 18.54818 9085 ft 275 kts 244°
2026-05-07 19:06 47.76699 18.53256 9152 ft 276 kts 228°
2026-05-07 19:06 47.74000 18.49192 9368 ft 276 kts 225°
2026-05-07 19:06 47.72643 18.47171 9475 ft 277 kts 225°
2026-05-07 19:07 47.71284 18.45146 9578 ft 277 kts 225°
2026-05-07 19:07 47.69923 18.43119 9685 ft 277 kts 225°
2026-05-07 19:07 47.68561 18.41092 9789 ft 278 kts 225°
2026-05-07 19:07 47.67197 18.39063 9908 ft 278 kts 225°
2026-05-07 19:08 47.65831 18.37035 9995 ft 278 kts 225°
2026-05-07 19:08 47.64449 18.34983 10109 ft 293 kts 225°
2026-05-07 19:08 47.62934 18.32729 10206 ft 320 kts 225°
2026-05-07 19:08 47.61350 18.30375 10311 ft 323 kts 225°
2026-05-07 19:09 47.59755 18.27993 10412 ft 325 kts 225°
2026-05-07 19:09 47.58173 18.25626 10507 ft 324 kts 225°
2026-05-07 19:09 47.56583 18.23248 10607 ft 325 kts 225°
2026-05-07 19:09 47.54990 18.20869 10701 ft 325 kts 225°
2026-05-07 19:10 47.53397 18.18493 10801 ft 325 kts 225°
2026-05-07 19:10 47.51892 18.16002 10895 ft 325 kts 236°
2026-05-07 19:10 47.50978 18.12956 10989 ft 327 kts 257°
2026-05-07 19:10 47.50930 18.09597 11091 ft 330 kts 279°
2026-05-07 19:11 47.51774 18.06434 11197 ft 335 kts 301°
2026-05-07 19:11 47.53394 18.03948 11292 ft 341 kts 323°
2026-05-07 19:11 47.55571 18.02512 11389 ft 347 kts 345°
2026-05-07 19:11 47.57992 18.02348 11502 ft 352 kts
2026-05-07 19:12 47.60406 18.03013 11599 ft 354 kts 11°
2026-05-07 19:12 47.62818 18.03786 11699 ft 355 kts
2026-05-07 19:12 47.65244 18.04434 11802 ft 354 kts
2026-05-07 19:12 47.67675 18.04945 11903 ft 353 kts
2026-05-07 19:13 47.70120 18.05372 11983 ft 354 kts
2026-05-07 19:13 47.72571 18.05704 11997 ft 353 kts 358°
2026-05-07 19:13 47.74953 18.05082 11998 ft 348 kts 336°
2026-05-07 19:13 47.76994 18.03235 11999 ft 342 kts 315°
2026-05-07 19:14 47.78498 18.00538 11999 ft 340 kts 304°
2026-05-07 19:14 47.79893 17.97692 12000 ft 340 kts 304°
2026-05-07 19:14 47.81280 17.94851 11999 ft 340 kts 304°
2026-05-07 19:14 47.82671 17.92007 11999 ft 340 kts 304°
2026-05-07 19:15 47.84064 17.89166 12000 ft 340 kts 304°
2026-05-07 19:15 47.85456 17.86327 11999 ft 340 kts 304°
2026-05-07 19:15 47.86851 17.83484 11993 ft 340 kts 304°
2026-05-07 19:15 47.88243 17.80644 11994 ft 340 kts 304°
2026-05-07 19:16 47.89636 17.77798 11991 ft 340 kts 304°
2026-05-07 19:16 47.91028 17.74952 11991 ft 340 kts 304°
2026-05-07 19:16 47.92420 17.72104 11992 ft 340 kts 304°
2026-05-07 19:16 47.93809 17.69255 11990 ft 343 kts 304°
2026-05-07 19:17 47.95192 17.66416 11995 ft 342 kts 304°
2026-05-07 19:17 47.96585 17.63552 11998 ft 341 kts 305°
2026-05-07 19:17 47.97969 17.60698 11996 ft 339 kts 305°
2026-05-07 19:17 47.99336 17.57880 11989 ft 340 kts 306°
2026-05-07 19:18 48.00723 17.55025 11989 ft 340 kts 306°
2026-05-07 19:18 48.02109 17.52167 11992 ft 340 kts 306°
2026-05-07 19:18 48.03495 17.49308 11995 ft 339 kts 305°
2026-05-07 19:18 48.04877 17.46453 11990 ft 340 kts 305°
2026-05-07 19:19 48.06254 17.43604 11993 ft 340 kts 305°
2026-05-07 19:19 48.07655 17.40760 11992 ft 340 kts 310°
2026-05-07 19:19 48.09443 17.38565 11994 ft 340 kts 331°
2026-05-07 19:19 48.11701 17.37500 11987 ft 340 kts 353°
2026-05-07 19:20 48.14051 17.37729 11718 ft 342 kts 14°
2026-05-07 19:20 48.16222 17.39218 11138 ft 346 kts 34°
2026-05-07 19:20 48.18078 17.41568 10383 ft 352 kts 43°
2026-05-07 19:20 48.19798 17.44105 10152 ft 340 kts 44°
2026-05-07 19:21 48.21459 17.46515 10001 ft 325 kts 43°
2026-05-07 19:21 48.23085 17.48764 9868 ft 311 kts 41°
2026-05-07 19:21 48.24669 17.50869 9734 ft 298 kts 40°
2026-05-07 19:21 48.26214 17.52877 9403 ft 292 kts 40°
2026-05-07 19:22 48.27755 17.54859 8956 ft 291 kts 40°
2026-05-07 19:22 48.29289 17.56825 8534 ft 289 kts 40°
2026-05-07 19:22 48.30815 17.58781 8104 ft 288 kts 39°
2026-05-07 19:22 48.32334 17.60733 7678 ft 287 kts 40°
2026-05-07 19:23 48.33845 17.62673 7286 ft 285 kts 40°
2026-05-07 19:23 48.35348 17.64602 6883 ft 284 kts 39°
2026-05-07 19:23 48.36850 17.66530 6479 ft 283 kts 40°
2026-05-07 19:23 48.38364 17.68402 6071 ft 281 kts 31°
2026-05-07 19:24 48.40165 17.69410 5639 ft 276 kts
2026-05-07 19:24 48.42019 17.69103 5218 ft 271 kts 338°
2026-05-07 19:24 48.43562 17.67563 4792 ft 267 kts 310°
2026-05-07 19:24 48.44441 17.65108 4353 ft 264 kts 282°
2026-05-07 19:25 48.44442 17.62421 3932 ft 263 kts 255°
2026-05-07 19:25 48.43584 17.60020 3514 ft 263 kts 228°
2026-05-07 19:25 48.42294 17.58067 3098 ft 263 kts 225°
2026-05-07 19:25 48.40987 17.56123 2680 ft 263 kts 225°
2026-05-07 19:26 48.39713 17.54226 2525 ft 252 kts 225°
2026-05-07 19:26 48.38491 17.52400 2492 ft 250 kts 225°
2026-05-07 19:26 48.37259 17.50548 2490 ft 240 kts 225°
2026-05-07 19:26 48.36149 17.48888 2493 ft 221 kts 225°
2026-05-07 19:27 48.35020 17.47195 2498 ft 231 kts 225°
2026-05-07 19:27 48.33886 17.45498 2496 ft 232 kts 225°
2026-05-07 19:27 48.32747 17.43788 2492 ft 232 kts 225°
2026-05-07 19:27 48.31619 17.42096 2522 ft 220 kts 226°
2026-05-07 19:28 48.30606 17.40615 2501 ft 198 kts 225°
2026-05-07 19:28 48.29605 17.39178 2496 ft 197 kts 225°
2026-05-07 19:28 48.28605 17.37744 2501 ft 201 kts 225°
2026-05-07 19:28 48.27608 17.36311 2498 ft 197 kts 225°
2026-05-07 19:29 48.26605 17.34882 2499 ft 199 kts 225°
2026-05-07 19:29 48.25604 17.33459 2503 ft 194 kts 225°
2026-05-07 19:29 48.24618 17.32057 2502 ft 199 kts 225°
2026-05-07 19:29 48.23620 17.30644 2498 ft 198 kts 225°
2026-05-07 19:30 48.22611 17.29216 2504 ft 201 kts 225°
2026-05-07 19:30 48.21604 17.27801 2499 ft 197 kts 225°
2026-05-07 19:30 48.20592 17.26364 2501 ft 205 kts 225°
2026-05-07 19:30 48.19582 17.24930 2495 ft 188 kts 225°
2026-05-07 19:31 48.18708 17.23701 2494 ft 157 kts 225°
2026-05-07 19:31 48.17949 17.22654 2502 ft 146 kts 225°
2026-05-07 19:31 48.17197 17.21627 2498 ft 145 kts 225°
2026-05-07 19:31 48.16450 17.20608 2498 ft 145 kts 225°
2026-05-07 19:32 48.15710 17.19604 2500 ft 146 kts 225°
2026-05-07 19:32 48.14963 17.18589 2499 ft 145 kts 225°
2026-05-07 19:32 48.14211 17.17568 2500 ft 146 kts 225°
2026-05-07 19:32 48.13463 17.16554 2500 ft 145 kts 225°
2026-05-07 19:33 48.12662 17.15629 2484 ft 149 kts 203°
2026-05-07 19:33 48.11649 17.15186 2485 ft 152 kts 187°
2026-05-07 19:33 48.10671 17.15686 2502 ft 159 kts 137°
2026-05-07 19:33 48.10092 17.17081 2503 ft 160 kts 115°
2026-05-07 19:34 48.09625 17.18564 2513 ft 151 kts 115°
2026-05-07 19:34 48.09188 17.19934 2500 ft 144 kts 115°
2026-05-07 19:34 48.08748 17.21303 2517 ft 148 kts 115°
2026-05-07 19:34 48.08302 17.22711 2818 ft 151 kts 115°
2026-05-07 19:35 48.07862 17.24114 2958 ft 148 kts 115°
2026-05-07 19:35 48.07423 17.25507 2999 ft 148 kts 115°
2026-05-07 19:35 48.06989 17.26883 3002 ft 143 kts 115°
2026-05-07 19:35 48.06584 17.28234 3005 ft 144 kts 114°
2026-05-07 19:36 48.06547 17.29673 3005 ft 141 kts 64°
2026-05-07 19:36 48.07160 17.30837 2998 ft 144 kts 45°
2026-05-07 19:36 48.07835 17.31932 3006 ft 144 kts 45°
2026-05-07 19:36 48.08508 17.33027 3001 ft 142 kts 45°
2026-05-07 19:37 48.09182 17.34115 3001 ft 143 kts 45°
2026-05-07 19:37 48.09852 17.35200 3004 ft 142 kts 45°
2026-05-07 19:37 48.10513 17.36273 3002 ft 142 kts 45°
2026-05-07 19:37 48.11187 17.37362 3000 ft 143 kts 45°
2026-05-07 19:38 48.11865 17.38457 3001 ft 142 kts 45°
2026-05-07 19:38 48.12539 17.39545 3003 ft 142 kts 45°
2026-05-07 19:38 48.13209 17.40616 3001 ft 142 kts 45°
2026-05-07 19:38 48.13885 17.41703 2997 ft 142 kts 45°
2026-05-07 19:39 48.14557 17.42790 3002 ft 143 kts 45°
2026-05-07 19:39 48.15232 17.43885 2995 ft 142 kts 45°
2026-05-07 19:39 48.15905 17.44969 3001 ft 142 kts 45°
2026-05-07 19:39 48.16580 17.46052 3004 ft 143 kts 45°
2026-05-07 19:40 48.17260 17.47145 2990 ft 142 kts 45°
2026-05-07 19:40 48.17937 17.48239 2994 ft 143 kts 45°
2026-05-07 19:40 48.18610 17.49331 3004 ft 145 kts 45°
2026-05-07 19:40 48.19293 17.50441 2997 ft 143 kts 45°
2026-05-07 19:41 48.19966 17.51533 3007 ft 145 kts 45°
2026-05-07 19:41 48.20644 17.52638 2993 ft 142 kts 45°
2026-05-07 19:41 48.21324 17.53749 3002 ft 144 kts 45°
2026-05-07 19:41 48.22000 17.54842 3008 ft 144 kts 45°
2026-05-07 19:42 48.22724 17.55865 2990 ft 142 kts 27°
2026-05-07 19:42 48.23650 17.55976 3003 ft 136 kts 333°
2026-05-07 19:42 48.24391 17.55131 2998 ft 134 kts 315°
2026-05-07 19:42 48.25086 17.54212 3004 ft 134 kts 315°
2026-05-07 19:43 48.25786 17.53282 3004 ft 134 kts 315°
2026-05-07 19:43 48.26483 17.52347 3004 ft 134 kts 315°
2026-05-07 19:43 48.27172 17.51421 2928 ft 131 kts 315°
2026-05-07 19:43 48.27852 17.50505 2655 ft 132 kts 315°
2026-05-07 19:44 48.28534 17.49591 2512 ft 132 kts 315°
2026-05-07 19:44 48.29228 17.48666 2504 ft 134 kts 315°
2026-05-07 19:44 48.29906 17.47709 2518 ft 133 kts 303°
2026-05-07 19:44 48.30041 17.46411 2534 ft 130 kts 250°
2026-05-07 19:45 48.29681 17.45155 2586 ft 133 kts 245°
2026-05-07 19:45 48.29301 17.43898 2606 ft 130 kts 245°
2026-05-07 19:45 48.28919 17.42659 2641 ft 131 kts 245°
2026-05-07 19:45 48.28534 17.41426 2654 ft 131 kts 245°
2026-05-07 19:46 48.28143 17.40184 2694 ft 131 kts 245°
2026-05-07 19:46 48.27765 17.38981 2709 ft 129 kts 245°
2026-05-07 19:46 48.27540 17.37701 2736 ft 127 kts 271°
2026-05-07 19:46 48.27836 17.36459 2756 ft 131 kts 305°
2026-05-07 19:47 48.28609 17.35746 2777 ft 136 kts 344°
2026-05-07 19:47 48.29548 17.35991 2795 ft 143 kts 27°
2026-05-07 19:47 48.30180 17.37151 2834 ft 147 kts 60°
2026-05-07 19:47 48.30657 17.38537 2861 ft 149 kts 60°
2026-05-07 19:48 48.31138 17.39909 2887 ft 147 kts 59°
2026-05-07 19:48 48.31624 17.41259 2915 ft 148 kts 59°
2026-05-07 19:48 48.32117 17.42601 2938 ft 144 kts 60°
2026-05-07 19:48 48.32603 17.43905 2949 ft 144 kts 60°
2026-05-07 19:49 48.33087 17.45214 2984 ft 144 kts 60°
2026-05-07 19:49 48.33575 17.46534 3014 ft 144 kts 60°
2026-05-07 19:49 48.34055 17.47853 3040 ft 144 kts 64°
2026-05-07 19:49 48.34151 17.49329 3066 ft 144 kts 92°
2026-05-07 19:50 48.34460 17.50734 3097 ft 144 kts 54°
2026-05-07 19:50 48.35096 17.51898 3121 ft 143 kts 46°
2026-05-07 19:50 48.35737 17.53031 3147 ft 144 kts 50°
2026-05-07 19:50 48.36330 17.54243 3169 ft 142 kts 54°
2026-05-07 19:51 48.36861 17.55502 3191 ft 144 kts 58°
2026-05-07 19:51 48.37444 17.56712 3203 ft 142 kts 38°
2026-05-07 19:51 48.38341 17.57099 3220 ft 136 kts 344°
2026-05-07 19:51 48.39044 17.56256 3260 ft 133 kts 290°
2026-05-07 19:52 48.38969 17.54925 3299 ft 133 kts 237°
2026-05-07 19:52 48.38553 17.54247 3326 ft 133 kts 225°
2026-05-07 19:52 48.37880 17.53276 3353 ft 135 kts 225°
2026-05-07 19:52 48.37203 17.52297 3381 ft 135 kts 225°
2026-05-07 19:53 48.36533 17.51330 3336 ft 132 kts 225°
2026-05-07 19:53 48.35870 17.50376 3104 ft 132 kts 225°
2026-05-07 19:53 48.35209 17.49429 2872 ft 129 kts 225°
2026-05-07 19:53 48.34567 17.48490 2574 ft 127 kts 225°
2026-05-07 19:54 48.33922 17.47563 2509 ft 130 kts 225°
2026-05-07 19:54 48.33268 17.46632 2501 ft 129 kts 225°
2026-05-07 19:54 48.32605 17.45699 2503 ft 131 kts 225°
2026-05-07 19:54 48.31942 17.44758 2502 ft 129 kts 225°
2026-05-07 19:55 48.31291 17.43835 2507 ft 130 kts 225°
2026-05-07 19:55 48.30630 17.42903 2504 ft 130 kts 225°
2026-05-07 19:55 48.29974 17.41967 2499 ft 129 kts 225°
2026-05-07 19:55 48.29318 17.41037 2502 ft 130 kts 225°
2026-05-07 19:56 48.28659 17.40103 2498 ft 130 kts 225°
2026-05-07 19:56 48.27995 17.39189 2509 ft 129 kts 225°
2026-05-07 19:56 48.27336 17.38296 2503 ft 128 kts 225°
2026-05-07 19:56 48.26672 17.37400 2501 ft 127 kts 227°
2026-05-07 19:57 48.26172 17.36341 2480 ft 125 kts 249°
2026-05-07 19:57 48.25944 17.35068 2365 ft 128 kts 261°
2026-05-07 19:57 48.25380 17.34110 2094 ft 131 kts 213°
2026-05-07 19:57 48.24652 17.33373 1930 ft 123 kts 228°
2026-05-07 19:58 48.24562 17.32151 1351 ft 145 kts 309°
2026-05-07 19:58 48.25406 17.31620 1455 ft 123 kts 345°
2026-05-07 19:58 48.26320 17.31341 1274 ft 128 kts 330°
2026-05-07 19:58 48.26748 17.30347 1627 ft 114 kts 263°
2026-05-07 19:59 48.26586 17.29146 1943 ft 138 kts 262°
2026-05-07 19:59 48.26286 17.27725 2290 ft 142 kts 232°
2026-05-07 19:59 48.25615 17.26751 2451 ft 130 kts 225°
2026-05-07 19:59 48.24946 17.25847 2500 ft 130 kts 225°
2026-05-07 20:00 48.24272 17.24953 2497 ft 128 kts 225°
2026-05-07 20:00 48.23493 17.24334 2502 ft 133 kts 189°
2026-05-07 20:00 48.22552 17.24326 2487 ft 137 kts 177°
2026-05-07 20:00 48.21742 17.25102 2488 ft 145 kts 135°
2026-05-07 20:01 48.21041 17.26219 2491 ft 147 kts 135°
2026-05-07 20:01 48.20338 17.27328 2490 ft 147 kts 135°
2026-05-07 20:01 48.19635 17.28441 2499 ft 148 kts 135°
2026-05-07 20:01 48.18917 17.29576 2696 ft 152 kts 135°
2026-05-07 20:02 48.18187 17.30725 3285 ft 151 kts 135°
2026-05-07 20:02 48.17462 17.31855 3802 ft 151 kts 135°
2026-05-07 20:02 48.16739 17.32963 3973 ft 144 kts 135°
2026-05-07 20:02 48.16045 17.34026 4001 ft 143 kts 135°
2026-05-07 20:03 48.15349 17.35090 4002 ft 143 kts 135°
2026-05-07 20:03 48.14653 17.36153 4002 ft 143 kts 135°
2026-05-07 20:03 48.13956 17.37223 4001 ft 143 kts 135°
2026-05-07 20:03 48.13261 17.38290 4002 ft 143 kts 135°
2026-05-07 20:04 48.12562 17.39368 3998 ft 144 kts 135°
2026-05-07 20:04 48.11866 17.40441 4007 ft 143 kts 135°
2026-05-07 20:04 48.11295 17.41630 3991 ft 142 kts 103°
2026-05-07 20:04 48.11482 17.43039 4002 ft 142 kts 50°
2026-05-07 20:05 48.12141 17.44128 4000 ft 140 kts 40°
2026-05-07 20:05 48.13016 17.44625 4011 ft 137 kts 356°
2026-05-07 20:05 48.13875 17.44152 4007 ft 133 kts 317°
2026-05-07 20:05 48.14339 17.42991 3999 ft 131 kts 283°
2026-05-07 20:06 48.14549 17.41660 4003 ft 131 kts 283°
2026-05-07 20:06 48.14779 17.40342 4008 ft 131 kts 284°
2026-05-07 20:06 48.15175 17.39136 3999 ft 131 kts 319°
2026-05-07 20:06 48.15821 17.38177 3979 ft 131 kts 290°
2026-05-07 20:07 48.15730 17.36864 4029 ft 135 kts 236°
2026-05-07 20:07 48.14927 17.36209 4036 ft 140 kts 182°